Year,Month,Day,Hour,Minute,Value (Times are PST for temperature in C)
2010,08,16,00,00,19.50
2010,08,16,00,01,19.50
2010,08,16,00,02,19.50
2010,08,16,00,03,19.50
2010,08,16,00,04,19.40
2010,08,16,00,05,19.40
2010,08,16,00,06,19.40
2010,08,16,00,07,19.40
2010,08,16,00,08,19.40
2010,08,16,00,09,19.40
2010,08,16,00,10,19.40
2010,08,16,00,11,19.30
2010,08,16,00,12,19.30
2010,08,16,00,13,19.30
2010,08,16,00,14,19.30
2010,08,16,00,15,19.30
2010,08,16,00,16,19.30
2010,08,16,00,17,19.30
2010,08,16,00,18,19.30
2010,08,16,00,19,19.30
2010,08,16,00,20,19.20
2010,08,16,00,21,19.20
2010,08,16,00,22,19.20
2010,08,16,00,23,19.20
2010,08,16,00,24,19.20
2010,08,16,00,25,19.20
2010,08,16,00,26,19.20
2010,08,16,00,27,19.10
2010,08,16,00,28,19.10
2010,08,16,00,29,19.10
2010,08,16,00,30,19.10
2010,08,16,00,31,19.10
2010,08,16,00,32,19.10
2010,08,16,00,33,19.10
2010,08,16,00,34,19.10
2010,08,16,00,35,19.00
2010,08,16,00,36,19.00
2010,08,16,00,37,19.00
2010,08,16,00,38,19.00
2010,08,16,00,39,19.00
2010,08,16,00,40,19.00
2010,08,16,00,41,18.90
2010,08,16,00,42,18.90
2010,08,16,00,43,18.90
2010,08,16,00,44,18.90
2010,08,16,00,45,18.90
2010,08,16,00,46,18.90
2010,08,16,00,47,18.90
2010,08,16,00,48,18.90
2010,08,16,00,49,18.90
2010,08,16,00,50,18.80
2010,08,16,00,51,18.80
2010,08,16,00,52,18.80
2010,08,16,00,53,18.80
2010,08,16,00,54,18.80
2010,08,16,00,55,18.80
2010,08,16,00,56,18.80
2010,08,16,00,57,18.80
2010,08,16,00,58,18.80
2010,08,16,00,59,18.80
2010,08,16,01,00,18.80
2010,08,16,01,01,18.80
2010,08,16,01,02,18.80
2010,08,16,01,03,18.80
2010,08,16,01,04,18.80
2010,08,16,01,05,18.70
2010,08,16,01,06,18.70
2010,08,16,01,07,18.70
2010,08,16,01,08,18.70
2010,08,16,01,09,18.70
2010,08,16,01,10,18.70
2010,08,16,01,11,18.70
2010,08,16,01,12,18.70
2010,08,16,01,13,18.70
2010,08,16,01,14,18.70
2010,08,16,01,15,18.60
2010,08,16,01,16,18.60
2010,08,16,01,17,18.60
2010,08,16,01,18,18.60
2010,08,16,01,19,18.60
2010,08,16,01,20,18.60
2010,08,16,01,21,18.60
2010,08,16,01,22,18.60
2010,08,16,01,23,18.60
2010,08,16,01,24,18.60
2010,08,16,01,25,18.60
2010,08,16,01,26,18.60
2010,08,16,01,27,18.50
2010,08,16,01,28,18.50
2010,08,16,01,29,18.50
2010,08,16,01,30,18.50
2010,08,16,01,31,18.50
2010,08,16,01,32,18.50
2010,08,16,01,33,18.50
2010,08,16,01,34,18.50
2010,08,16,01,35,18.50
2010,08,16,01,36,18.50
2010,08,16,01,37,18.40
2010,08,16,01,38,18.40
2010,08,16,01,39,18.40
2010,08,16,01,40,18.40
2010,08,16,01,41,18.40
2010,08,16,01,42,18.40
2010,08,16,01,43,18.40
2010,08,16,01,44,18.40
2010,08,16,01,45,18.40
2010,08,16,01,46,18.40
2010,08,16,01,47,18.40
2010,08,16,01,48,18.40
2010,08,16,01,49,18.40
2010,08,16,01,50,18.40
2010,08,16,01,51,18.40
2010,08,16,01,52,18.30
2010,08,16,01,53,18.30
2010,08,16,01,54,18.30
2010,08,16,01,55,18.30
2010,08,16,01,56,18.30
2010,08,16,01,57,18.30
2010,08,16,01,58,18.30
2010,08,16,01,59,18.30
2010,08,16,02,00,18.30
2010,08,16,02,01,18.30
2010,08,16,02,02,18.30
2010,08,16,02,03,18.30
2010,08,16,02,04,18.30
2010,08,16,02,05,18.30
2010,08,16,02,06,18.30
2010,08,16,02,07,18.30
2010,08,16,02,08,18.30
2010,08,16,02,09,18.30
2010,08,16,02,10,18.30
2010,08,16,02,11,18.30
2010,08,16,02,12,18.30
2010,08,16,02,13,18.30
2010,08,16,02,14,18.30
2010,08,16,02,15,18.30
2010,08,16,02,16,18.30
2010,08,16,02,17,18.30
2010,08,16,02,18,18.30
2010,08,16,02,19,18.30
2010,08,16,02,20,18.30
2010,08,16,02,21,18.30
2010,08,16,02,22,18.30
2010,08,16,02,23,18.30
2010,08,16,02,24,18.30
2010,08,16,02,25,18.30
2010,08,16,02,26,18.30
2010,08,16,02,27,18.20
2010,08,16,02,28,18.20
2010,08,16,02,29,18.20
2010,08,16,02,30,18.20
2010,08,16,02,31,18.20
2010,08,16,02,32,18.20
2010,08,16,02,33,18.20
2010,08,16,02,34,18.20
2010,08,16,02,35,18.10
2010,08,16,02,36,18.10
2010,08,16,02,37,18.10
2010,08,16,02,38,18.10
2010,08,16,02,39,18.10
2010,08,16,02,40,18.10
2010,08,16,02,41,18.00
2010,08,16,02,42,18.00
2010,08,16,02,43,18.00
2010,08,16,02,44,18.00
2010,08,16,02,45,17.90
2010,08,16,02,46,17.90
2010,08,16,02,47,17.90
2010,08,16,02,48,17.90
2010,08,16,02,49,17.90
2010,08,16,02,50,17.90
2010,08,16,02,51,17.90
2010,08,16,02,52,17.90
2010,08,16,02,53,17.80
2010,08,16,02,54,17.80
2010,08,16,02,55,17.80
2010,08,16,02,56,17.80
2010,08,16,02,57,17.80
2010,08,16,02,58,17.80
2010,08,16,02,59,17.80
2010,08,16,03,00,17.80
2010,08,16,03,01,17.70
2010,08,16,03,02,17.70
2010,08,16,03,03,17.70
2010,08,16,03,04,17.70
2010,08,16,03,05,17.70
2010,08,16,03,06,17.70
2010,08,16,03,07,17.60
2010,08,16,03,08,17.60
2010,08,16,03,09,17.60
2010,08,16,03,10,17.60
2010,08,16,03,11,17.50
2010,08,16,03,12,17.50
2010,08,16,03,13,17.50
2010,08,16,03,14,17.50
2010,08,16,03,15,17.40
2010,08,16,03,16,17.40
2010,08,16,03,17,17.40
2010,08,16,03,18,17.40
2010,08,16,03,19,17.40
2010,08,16,03,20,17.40
2010,08,16,03,21,17.40
2010,08,16,03,22,17.40
2010,08,16,03,23,17.40
2010,08,16,03,24,17.40
2010,08,16,03,25,17.40
2010,08,16,03,26,17.40
2010,08,16,03,27,17.30
2010,08,16,03,28,17.30
2010,08,16,03,29,17.30
2010,08,16,03,30,17.30
2010,08,16,03,31,17.30
2010,08,16,03,32,17.30
2010,08,16,03,33,17.30
2010,08,16,03,34,17.30
2010,08,16,03,35,17.30
2010,08,16,03,36,17.20
2010,08,16,03,37,17.20
2010,08,16,03,38,17.20
2010,08,16,03,39,17.20
2010,08,16,03,40,17.20
2010,08,16,03,41,17.20
2010,08,16,03,42,17.20
2010,08,16,03,43,17.20
2010,08,16,03,44,17.20
2010,08,16,03,45,17.20
2010,08,16,03,46,17.20
2010,08,16,03,47,17.20
2010,08,16,03,48,17.20
2010,08,16,03,49,17.20
2010,08,16,03,50,17.20
2010,08,16,03,51,17.20
2010,08,16,03,52,17.20
2010,08,16,03,53,17.20
2010,08,16,03,54,17.20
2010,08,16,03,55,17.20
2010,08,16,03,56,17.20
2010,08,16,03,57,17.20
2010,08,16,03,58,17.10
2010,08,16,03,59,17.10
2010,08,16,04,00,17.20
2010,08,16,04,01,17.10
2010,08,16,04,02,17.10
2010,08,16,04,03,17.10
2010,08,16,04,04,17.10
2010,08,16,04,05,17.10
2010,08,16,04,06,17.10
2010,08,16,04,07,17.10
2010,08,16,04,08,17.10
2010,08,16,04,09,17.10
2010,08,16,04,10,17.10
2010,08,16,04,11,17.10
2010,08,16,04,12,17.10
2010,08,16,04,13,17.10
2010,08,16,04,14,17.10
2010,08,16,04,15,17.00
2010,08,16,04,16,17.00
2010,08,16,04,17,17.00
2010,08,16,04,18,17.00
2010,08,16,04,19,17.00
2010,08,16,04,20,17.00
2010,08,16,04,21,17.00
2010,08,16,04,22,17.00
2010,08,16,04,23,17.00
2010,08,16,04,24,16.90
2010,08,16,04,25,16.90
2010,08,16,04,26,16.90
2010,08,16,04,27,16.90
2010,08,16,04,28,16.90
2010,08,16,04,29,16.90
2010,08,16,04,30,16.90
2010,08,16,04,31,16.90
2010,08,16,04,32,16.90
2010,08,16,04,33,16.90
2010,08,16,04,34,16.90
2010,08,16,04,35,16.90
2010,08,16,04,36,16.90
2010,08,16,04,37,16.90
2010,08,16,04,38,16.90
2010,08,16,04,39,16.90
2010,08,16,04,40,16.90
2010,08,16,04,41,16.90
2010,08,16,04,42,16.90
2010,08,16,04,43,16.80
2010,08,16,04,44,16.80
2010,08,16,04,45,16.80
2010,08,16,04,46,16.80
2010,08,16,04,47,16.80
2010,08,16,04,48,16.80
2010,08,16,04,49,16.80
2010,08,16,04,50,16.80
2010,08,16,04,51,16.80
2010,08,16,04,52,16.80
2010,08,16,04,53,16.80
2010,08,16,04,54,16.80
2010,08,16,04,55,16.80
2010,08,16,04,56,16.80
2010,08,16,04,57,16.70
2010,08,16,04,58,16.70
2010,08,16,04,59,16.70
2010,08,16,05,00,16.70
2010,08,16,05,01,16.70
2010,08,16,05,02,16.60
2010,08,16,05,03,16.60
2010,08,16,05,04,16.60
2010,08,16,05,05,16.60
2010,08,16,05,06,16.60
2010,08,16,05,07,16.60
2010,08,16,05,08,16.50
2010,08,16,05,09,16.50
2010,08,16,05,10,16.50
2010,08,16,05,11,16.50
2010,08,16,05,12,16.50
2010,08,16,05,13,16.50
2010,08,16,05,14,16.50
2010,08,16,05,15,16.50
2010,08,16,05,16,16.50
2010,08,16,05,17,16.50
2010,08,16,05,18,16.40
2010,08,16,05,19,16.40
2010,08,16,05,20,16.40
2010,08,16,05,21,16.40
2010,08,16,05,22,16.40
2010,08,16,05,23,16.40
2010,08,16,05,24,16.40
2010,08,16,05,25,16.40
2010,08,16,05,26,16.30
2010,08,16,05,27,16.30
2010,08,16,05,28,16.30
2010,08,16,05,29,16.30
2010,08,16,05,30,16.30
2010,08,16,05,31,16.30
2010,08,16,05,32,16.20
2010,08,16,05,33,16.20
2010,08,16,05,34,16.20
2010,08,16,05,35,16.20
2010,08,16,05,36,16.20
2010,08,16,05,37,16.20
2010,08,16,05,38,16.20
2010,08,16,05,39,16.20
2010,08,16,05,40,16.20
2010,08,16,05,41,16.20
2010,08,16,05,42,16.20
2010,08,16,05,43,16.20
2010,08,16,05,44,16.20
2010,08,16,05,45,16.10
2010,08,16,05,46,16.10
2010,08,16,05,47,16.10
2010,08,16,05,48,16.10
2010,08,16,05,49,16.10
2010,08,16,05,50,16.10
2010,08,16,05,51,16.10
2010,08,16,05,52,16.00
2010,08,16,05,53,16.00
2010,08,16,05,54,16.00
2010,08,16,05,55,16.00
2010,08,16,05,56,15.90
2010,08,16,05,57,15.90
2010,08,16,05,58,15.90
2010,08,16,05,59,15.90
2010,08,16,06,00,15.90
2010,08,16,06,01,15.90
2010,08,16,06,02,15.90
2010,08,16,06,03,15.90
2010,08,16,06,04,15.80
2010,08,16,06,05,15.80
2010,08,16,06,06,15.80
2010,08,16,06,07,15.80
2010,08,16,06,08,15.80
2010,08,16,06,09,15.80
2010,08,16,06,10,15.80
2010,08,16,06,11,15.80
2010,08,16,06,12,15.80
2010,08,16,06,13,15.80
2010,08,16,06,14,15.80
2010,08,16,06,15,15.80
2010,08,16,06,16,15.70
2010,08,16,06,17,15.70
2010,08,16,06,18,15.70
2010,08,16,06,19,15.70
2010,08,16,06,20,15.70
2010,08,16,06,21,15.70
2010,08,16,06,22,15.70
2010,08,16,06,23,15.70
2010,08,16,06,24,15.70
2010,08,16,06,25,15.60
2010,08,16,06,26,15.60
2010,08,16,06,27,15.60
2010,08,16,06,28,15.60
2010,08,16,06,29,15.60
2010,08,16,06,30,15.60
2010,08,16,06,31,15.60
2010,08,16,06,32,15.60
2010,08,16,06,33,15.60
2010,08,16,06,34,15.60
2010,08,16,06,35,15.60
2010,08,16,06,36,15.60
2010,08,16,06,37,15.60
2010,08,16,06,38,15.50
2010,08,16,06,39,15.50
2010,08,16,06,40,15.50
2010,08,16,06,41,15.50
2010,08,16,06,42,15.50
2010,08,16,06,43,15.50
2010,08,16,06,44,15.50
2010,08,16,06,45,15.50
2010,08,16,06,46,15.40
2010,08,16,06,47,15.40
2010,08,16,06,48,15.40
2010,08,16,06,49,15.40
2010,08,16,06,50,15.40
2010,08,16,06,51,15.40
2010,08,16,06,52,15.40
2010,08,16,06,53,15.40
2010,08,16,06,54,15.40
2010,08,16,06,55,15.40
2010,08,16,06,56,15.40
2010,08,16,06,57,15.40
2010,08,16,06,58,15.40
2010,08,16,06,59,15.40
2010,08,16,07,00,15.40
2010,08,16,07,01,15.40
2010,08,16,07,02,15.40
2010,08,16,07,03,15.40
2010,08,16,07,04,15.40
2010,08,16,07,05,15.40
2010,08,16,07,06,15.40
2010,08,16,07,07,15.40
2010,08,16,07,08,15.40
2010,08,16,07,09,15.40
2010,08,16,07,10,15.40
2010,08,16,07,11,15.50
2010,08,16,07,12,15.50
2010,08,16,07,13,15.50
2010,08,16,07,14,15.50
2010,08,16,07,15,15.50
2010,08,16,07,16,15.50
2010,08,16,07,17,15.50
2010,08,16,07,18,15.50
2010,08,16,07,19,15.60
2010,08,16,07,20,15.60
2010,08,16,07,21,15.60
2010,08,16,07,22,15.60
2010,08,16,07,23,15.60
2010,08,16,07,24,15.60
2010,08,16,07,25,15.60
2010,08,16,07,26,15.60
2010,08,16,07,27,15.70
2010,08,16,07,28,15.70
2010,08,16,07,29,15.70
2010,08,16,07,30,15.70
2010,08,16,07,31,15.80
2010,08,16,07,32,15.80
2010,08,16,07,33,15.80
2010,08,16,07,34,15.80
2010,08,16,07,35,15.80
2010,08,16,07,36,15.90
2010,08,16,07,37,15.90
2010,08,16,07,38,15.90
2010,08,16,07,39,16.00
2010,08,16,07,40,16.10
2010,08,16,07,41,16.20
2010,08,16,07,42,16.20
2010,08,16,07,43,16.30
2010,08,16,07,44,16.30
2010,08,16,07,45,16.40
2010,08,16,07,46,16.50
2010,08,16,07,47,16.60
2010,08,16,07,48,16.70
2010,08,16,07,49,16.70
2010,08,16,07,50,16.80
2010,08,16,07,51,16.80
2010,08,16,07,52,16.90
2010,08,16,07,53,16.90
2010,08,16,07,54,17.00
2010,08,16,07,55,17.10
2010,08,16,07,56,17.10
2010,08,16,07,57,17.20
2010,08,16,07,58,17.30
2010,08,16,07,59,17.40
2010,08,16,08,00,17.40
2010,08,16,08,01,17.50
2010,08,16,08,02,17.60
2010,08,16,08,03,17.70
2010,08,16,08,04,17.70
2010,08,16,08,05,17.80
2010,08,16,08,06,17.90
2010,08,16,08,07,18.00
2010,08,16,08,08,18.10
2010,08,16,08,09,18.20
2010,08,16,08,10,18.30
2010,08,16,08,11,18.40
2010,08,16,08,12,18.60
2010,08,16,08,13,18.70
2010,08,16,08,14,18.90
2010,08,16,08,15,19.00
2010,08,16,08,16,19.10
2010,08,16,08,17,19.20
2010,08,16,08,18,19.30
2010,08,16,08,19,19.40
2010,08,16,08,20,19.50
2010,08,16,08,21,19.60
2010,08,16,08,22,19.70
2010,08,16,08,23,19.70
2010,08,16,08,24,19.80
2010,08,16,08,25,19.90
2010,08,16,08,26,19.90
2010,08,16,08,27,20.00
2010,08,16,08,28,20.10
2010,08,16,08,29,20.10
2010,08,16,08,30,20.20
2010,08,16,08,31,20.30
2010,08,16,08,32,20.30
2010,08,16,08,33,20.40
2010,08,16,08,34,20.50
2010,08,16,08,35,20.50
2010,08,16,08,36,20.60
2010,08,16,08,37,20.70
2010,08,16,08,38,20.80
2010,08,16,08,39,20.80
2010,08,16,08,40,20.90
2010,08,16,08,41,21.00
2010,08,16,08,42,21.10
2010,08,16,08,43,21.30
2010,08,16,08,44,21.30
2010,08,16,08,45,21.40
2010,08,16,08,46,21.50
2010,08,16,08,47,21.60
2010,08,16,08,48,21.70
2010,08,16,08,49,21.80
2010,08,16,08,50,21.80
2010,08,16,08,51,22.00
2010,08,16,08,52,22.10
2010,08,16,08,53,22.10
2010,08,16,08,54,22.20
2010,08,16,08,55,22.30
2010,08,16,08,56,22.40
2010,08,16,08,57,22.50
2010,08,16,08,58,22.60
2010,08,16,08,59,22.70
2010,08,16,09,00,22.80
2010,08,16,09,01,22.80
2010,08,16,09,02,22.80
2010,08,16,09,03,22.80
2010,08,16,09,04,22.80
2010,08,16,09,05,22.70
2010,08,16,09,06,22.70
2010,08,16,09,07,22.60
2010,08,16,09,08,22.50
2010,08,16,09,09,22.50
2010,08,16,09,10,22.50
2010,08,16,09,11,22.40
2010,08,16,09,12,22.40
2010,08,16,09,13,22.50
2010,08,16,09,14,22.50
2010,08,16,09,15,22.60
2010,08,16,09,16,22.70
2010,08,16,09,17,22.70
2010,08,16,09,18,22.70
2010,08,16,09,19,22.70
2010,08,16,09,20,22.70
2010,08,16,09,21,22.70
2010,08,16,09,22,22.60
2010,08,16,09,23,22.60
2010,08,16,09,24,22.60
2010,08,16,09,25,22.50
2010,08,16,09,26,22.40
2010,08,16,09,27,22.40
2010,08,16,09,28,22.30
2010,08,16,09,29,22.30
2010,08,16,09,30,22.20
2010,08,16,09,31,22.10
2010,08,16,09,32,22.10
2010,08,16,09,33,22.00
2010,08,16,09,34,22.00
2010,08,16,09,35,22.00
2010,08,16,09,36,21.90
2010,08,16,09,37,21.90
2010,08,16,09,38,21.90
2010,08,16,09,39,21.90
2010,08,16,09,40,21.90
2010,08,16,09,41,22.00
2010,08,16,09,42,22.00
2010,08,16,09,43,22.00
2010,08,16,09,44,22.10
2010,08,16,09,45,22.10
2010,08,16,09,46,22.20
2010,08,16,09,47,22.20
2010,08,16,09,48,22.30
2010,08,16,09,49,22.30
2010,08,16,09,50,22.40
2010,08,16,09,51,22.50
2010,08,16,09,52,22.50
2010,08,16,09,53,22.60
2010,08,16,09,54,22.70
2010,08,16,09,55,22.70
2010,08,16,09,56,22.80
2010,08,16,09,57,22.90
2010,08,16,09,58,22.90
2010,08,16,09,59,23.00
2010,08,16,10,00,23.10
2010,08,16,10,01,23.20
2010,08,16,10,02,23.30
2010,08,16,10,03,23.40
2010,08,16,10,04,23.40
2010,08,16,10,05,23.50
2010,08,16,10,06,23.60
2010,08,16,10,07,23.70
2010,08,16,10,08,23.80
2010,08,16,10,09,23.80
2010,08,16,10,10,23.90
2010,08,16,10,11,23.90
2010,08,16,10,12,24.00
2010,08,16,10,13,24.10
2010,08,16,10,14,24.10
2010,08,16,10,15,24.20
2010,08,16,10,16,24.30
2010,08,16,10,17,24.30
2010,08,16,10,18,24.40
2010,08,16,10,19,24.50
2010,08,16,10,20,24.50
2010,08,16,10,21,24.60
2010,08,16,10,22,24.60
2010,08,16,10,23,24.70
2010,08,16,10,24,24.70
2010,08,16,10,25,24.70
2010,08,16,10,26,24.80
2010,08,16,10,27,24.80
2010,08,16,10,28,24.80
2010,08,16,10,29,24.80
2010,08,16,10,30,24.80
2010,08,16,10,31,24.80
2010,08,16,10,32,24.80
2010,08,16,10,33,24.80
2010,08,16,10,34,24.80
2010,08,16,10,35,24.80
2010,08,16,10,36,24.80
2010,08,16,10,37,24.80
2010,08,16,10,38,24.80
2010,08,16,10,39,24.80
2010,08,16,10,40,24.90
2010,08,16,10,41,24.90
2010,08,16,10,42,24.90
2010,08,16,10,43,25.00
2010,08,16,10,44,25.10
2010,08,16,10,45,25.20
2010,08,16,10,46,25.30
2010,08,16,10,47,25.30
2010,08,16,10,48,25.40
2010,08,16,10,49,25.50
2010,08,16,10,50,25.60
2010,08,16,10,51,25.70
2010,08,16,10,52,25.80
2010,08,16,10,53,25.90
2010,08,16,10,54,25.90
2010,08,16,10,55,26.00
2010,08,16,10,56,26.10
2010,08,16,10,57,26.20
2010,08,16,10,58,26.30
2010,08,16,10,59,26.30
2010,08,16,11,00,26.30
2010,08,16,11,01,26.30
2010,08,16,11,02,26.40
2010,08,16,11,03,26.40
2010,08,16,11,04,26.40
2010,08,16,11,05,26.40
2010,08,16,11,06,26.50
2010,08,16,11,07,26.50
2010,08,16,11,08,26.60
2010,08,16,11,09,26.60
2010,08,16,11,10,26.60
2010,08,16,11,11,26.70
2010,08,16,11,12,26.70
2010,08,16,11,13,26.80
2010,08,16,11,14,26.80
2010,08,16,11,15,26.90
2010,08,16,11,16,26.90
2010,08,16,11,17,26.90
2010,08,16,11,18,26.90
2010,08,16,11,19,26.90
2010,08,16,11,20,26.90
2010,08,16,11,21,26.90
2010,08,16,11,22,26.90
2010,08,16,11,23,26.90
2010,08,16,11,24,26.80
2010,08,16,11,25,26.80
2010,08,16,11,26,26.80
2010,08,16,11,27,26.80
2010,08,16,11,28,26.80
2010,08,16,11,29,26.80
2010,08,16,11,30,26.80
2010,08,16,11,31,26.80
2010,08,16,11,32,26.80
2010,08,16,11,33,26.80
2010,08,16,11,34,26.80
2010,08,16,11,35,26.80
2010,08,16,11,36,26.70
2010,08,16,11,37,26.70
2010,08,16,11,38,26.70
2010,08,16,11,39,26.70
2010,08,16,11,40,26.70
2010,08,16,11,41,26.70
2010,08,16,11,42,26.80
2010,08,16,11,43,26.80
2010,08,16,11,44,26.80
2010,08,16,11,45,26.80
2010,08,16,11,46,26.90
2010,08,16,11,47,26.90
2010,08,16,11,48,26.90
2010,08,16,11,49,26.90
2010,08,16,11,50,27.00
2010,08,16,11,51,27.00
2010,08,16,11,52,27.10
2010,08,16,11,53,27.10
2010,08,16,11,54,27.20
2010,08,16,11,55,27.30
2010,08,16,11,56,27.30
2010,08,16,11,57,27.40
2010,08,16,11,58,27.40
2010,08,16,11,59,27.50
2010,08,16,12,00,27.50
2010,08,16,12,01,27.60
2010,08,16,12,02,27.60
2010,08,16,12,03,27.60
2010,08,16,12,04,27.70
2010,08,16,12,05,27.70
2010,08,16,12,06,27.70
2010,08,16,12,07,27.70
2010,08,16,12,08,27.80
2010,08,16,12,09,27.80
2010,08,16,12,10,27.80
2010,08,16,12,11,27.80
2010,08,16,12,12,27.80
2010,08,16,12,13,27.90
2010,08,16,12,14,27.90
2010,08,16,12,15,27.90
2010,08,16,12,16,27.90
2010,08,16,12,17,27.90
2010,08,16,12,18,27.90
2010,08,16,12,19,28.00
2010,08,16,12,20,28.00
2010,08,16,12,21,28.00
2010,08,16,12,22,28.10
2010,08,16,12,23,28.10
2010,08,16,12,24,28.10
2010,08,16,12,25,28.10
2010,08,16,12,26,28.20
2010,08,16,12,27,28.20
2010,08,16,12,28,28.20
2010,08,16,12,29,28.20
2010,08,16,12,30,28.20
2010,08,16,12,31,28.20
2010,08,16,12,32,28.20
2010,08,16,12,33,28.30
2010,08,16,12,34,28.40
2010,08,16,12,35,28.40
2010,08,16,12,36,28.40
2010,08,16,12,37,28.40
2010,08,16,12,38,28.40
2010,08,16,12,39,28.40
2010,08,16,12,40,28.50
2010,08,16,12,41,28.50
2010,08,16,12,42,28.60
2010,08,16,12,43,28.70
2010,08,16,12,44,28.70
2010,08,16,12,45,28.80
2010,08,16,12,46,28.90
2010,08,16,12,47,29.00
2010,08,16,12,48,29.00
2010,08,16,12,49,29.10
2010,08,16,12,50,29.10
2010,08,16,12,51,29.10
2010,08,16,12,52,29.10
2010,08,16,12,53,29.10
2010,08,16,12,54,29.20
2010,08,16,12,55,29.20
2010,08,16,12,56,29.20
2010,08,16,12,57,29.20
2010,08,16,12,58,29.20
2010,08,16,12,59,29.20
2010,08,16,13,00,29.20
2010,08,16,13,01,29.20
2010,08,16,13,02,29.20
2010,08,16,13,03,29.20
2010,08,16,13,04,29.10
2010,08,16,13,05,29.20
2010,08,16,13,06,29.20
2010,08,16,13,07,29.20
2010,08,16,13,08,29.20
2010,08,16,13,09,29.20
2010,08,16,13,10,29.20
2010,08,16,13,11,29.30
2010,08,16,13,12,29.30
2010,08,16,13,13,29.40
2010,08,16,13,14,29.40
2010,08,16,13,15,29.50
2010,08,16,13,16,29.50
2010,08,16,13,17,29.60
2010,08,16,13,18,29.60
2010,08,16,13,19,29.70
2010,08,16,13,20,29.70
2010,08,16,13,21,29.70
2010,08,16,13,22,29.70
2010,08,16,13,23,29.70
2010,08,16,13,24,29.70
2010,08,16,13,25,29.60
2010,08,16,13,26,29.50
2010,08,16,13,27,29.40
2010,08,16,13,28,29.30
2010,08,16,13,29,29.30
2010,08,16,13,30,29.30
2010,08,16,13,31,29.30
2010,08,16,13,32,29.30
2010,08,16,13,33,29.30
2010,08,16,13,34,29.30
2010,08,16,13,35,29.40
2010,08,16,13,36,29.40
2010,08,16,13,37,29.50
2010,08,16,13,38,29.40
2010,08,16,13,39,29.40
2010,08,16,13,40,29.40
2010,08,16,13,41,29.30
2010,08,16,13,42,29.30
2010,08,16,13,43,29.30
2010,08,16,13,44,29.30
2010,08,16,13,45,29.40
2010,08,16,13,46,29.40
2010,08,16,13,47,29.30
2010,08,16,13,48,29.30
2010,08,16,13,49,29.30
2010,08,16,13,50,29.30
2010,08,16,13,51,29.30
2010,08,16,13,52,29.30
2010,08,16,13,53,29.30
2010,08,16,13,54,29.30
2010,08,16,13,55,29.30
2010,08,16,13,56,29.30
2010,08,16,13,57,29.30
2010,08,16,13,58,29.30
2010,08,16,13,59,29.40
2010,08,16,14,00,29.40
2010,08,16,14,01,29.50
2010,08,16,14,02,29.50
2010,08,16,14,03,29.60
2010,08,16,14,04,29.60
2010,08,16,14,05,29.60
2010,08,16,14,06,29.70
2010,08,16,14,07,29.70
2010,08,16,14,08,29.70
2010,08,16,14,09,29.70
2010,08,16,14,10,29.70
2010,08,16,14,11,29.70
2010,08,16,14,12,29.80
2010,08,16,14,13,29.80
2010,08,16,14,14,29.80
2010,08,16,14,15,29.80
2010,08,16,14,16,29.80
2010,08,16,14,17,29.80
2010,08,16,14,18,29.80
2010,08,16,14,19,29.80
2010,08,16,14,20,29.80
2010,08,16,14,21,29.90
2010,08,16,14,22,30.00
2010,08,16,14,23,30.00
2010,08,16,14,24,30.10
2010,08,16,14,25,30.10
2010,08,16,14,26,30.10
2010,08,16,14,27,30.10
2010,08,16,14,28,30.10
2010,08,16,14,29,30.10
2010,08,16,14,30,30.10
2010,08,16,14,31,30.10
2010,08,16,14,32,30.20
2010,08,16,14,33,30.20
2010,08,16,14,34,30.30
2010,08,16,14,35,30.30
2010,08,16,14,36,30.30
2010,08,16,14,37,30.30
2010,08,16,14,38,30.30
2010,08,16,14,39,30.30
2010,08,16,14,40,30.30
2010,08,16,14,41,30.30
2010,08,16,14,42,30.30
2010,08,16,14,43,30.30
2010,08,16,14,44,30.20
2010,08,16,14,45,30.10
2010,08,16,14,46,30.10
2010,08,16,14,47,30.10
2010,08,16,14,48,30.10
2010,08,16,14,49,30.00
2010,08,16,14,50,30.00
2010,08,16,14,51,29.90
2010,08,16,14,52,29.90
2010,08,16,14,53,29.90
2010,08,16,14,54,29.80
2010,08,16,14,55,29.80
2010,08,16,14,56,29.80
2010,08,16,14,57,29.80
2010,08,16,14,58,29.80
2010,08,16,14,59,29.90
2010,08,16,15,00,29.90
2010,08,16,15,01,29.90
2010,08,16,15,02,29.90
2010,08,16,15,03,29.90
2010,08,16,15,04,29.90
2010,08,16,15,05,29.90
2010,08,16,15,06,29.90
2010,08,16,15,07,29.90
2010,08,16,15,08,29.90
2010,08,16,15,09,29.90
2010,08,16,15,10,30.00
2010,08,16,15,11,30.00
2010,08,16,15,12,30.10
2010,08,16,15,13,30.10
2010,08,16,15,14,30.20
2010,08,16,15,15,30.20
2010,08,16,15,16,30.20
2010,08,16,15,17,30.30
2010,08,16,15,18,30.30
2010,08,16,15,19,30.30
2010,08,16,15,20,30.30
2010,08,16,15,21,30.30
2010,08,16,15,22,30.30
2010,08,16,15,23,30.30
2010,08,16,15,24,30.40
2010,08,16,15,25,30.40
2010,08,16,15,26,30.50
2010,08,16,15,27,30.60
2010,08,16,15,28,30.60
2010,08,16,15,29,30.60
2010,08,16,15,30,30.60
2010,08,16,15,31,30.60
2010,08,16,15,32,30.70
2010,08,16,15,33,30.70
2010,08,16,15,34,30.70
2010,08,16,15,35,30.70
2010,08,16,15,36,30.70
2010,08,16,15,37,30.70
2010,08,16,15,38,30.80
2010,08,16,15,39,30.90
2010,08,16,15,40,31.00
2010,08,16,15,41,31.00
2010,08,16,15,42,31.10
2010,08,16,15,43,31.10
2010,08,16,15,44,31.10
2010,08,16,15,45,31.20
2010,08,16,15,46,31.20
2010,08,16,15,47,31.20
2010,08,16,15,48,31.30
2010,08,16,15,49,31.30
2010,08,16,15,50,31.20
2010,08,16,15,51,31.30
2010,08,16,15,52,31.30
2010,08,16,15,53,31.30
2010,08,16,15,54,31.20
2010,08,16,15,55,31.20
2010,08,16,15,56,31.20
2010,08,16,15,57,31.20
2010,08,16,15,58,31.20
2010,08,16,15,59,31.20
2010,08,16,16,00,31.30
2010,08,16,16,01,31.30
2010,08,16,16,02,31.30
2010,08,16,16,03,31.30
2010,08,16,16,04,31.30
2010,08,16,16,05,31.20
2010,08,16,16,06,31.20
2010,08,16,16,07,31.20
2010,08,16,16,08,31.20
2010,08,16,16,09,31.20
2010,08,16,16,10,31.20
2010,08,16,16,11,31.20
2010,08,16,16,12,31.10
2010,08,16,16,13,31.10
2010,08,16,16,14,31.10
2010,08,16,16,15,31.00
2010,08,16,16,16,31.00
2010,08,16,16,17,30.90
2010,08,16,16,18,30.90
2010,08,16,16,19,30.80
2010,08,16,16,20,30.80
2010,08,16,16,21,30.80
2010,08,16,16,22,30.70
2010,08,16,16,23,30.60
2010,08,16,16,24,30.60
2010,08,16,16,25,30.60
2010,08,16,16,26,30.60
2010,08,16,16,27,30.60
2010,08,16,16,28,30.60
2010,08,16,16,29,30.60
2010,08,16,16,30,30.60
2010,08,16,16,31,30.70
2010,08,16,16,32,30.80
2010,08,16,16,33,30.80
2010,08,16,16,34,30.90
2010,08,16,16,35,30.90
2010,08,16,16,36,30.80
2010,08,16,16,37,30.80
2010,08,16,16,38,30.80
2010,08,16,16,39,30.80
2010,08,16,16,40,30.80
2010,08,16,16,41,30.80
2010,08,16,16,42,30.70
2010,08,16,16,43,30.60
2010,08,16,16,44,30.60
2010,08,16,16,45,30.50
2010,08,16,16,46,30.50
2010,08,16,16,47,30.60
2010,08,16,16,48,30.60
2010,08,16,16,49,30.60
2010,08,16,16,50,30.70
2010,08,16,16,51,30.70
2010,08,16,16,52,30.70
2010,08,16,16,53,30.60
2010,08,16,16,54,30.70
2010,08,16,16,55,30.70
2010,08,16,16,56,30.80
2010,08,16,16,57,30.80
2010,08,16,16,58,30.90
2010,08,16,16,59,30.90
2010,08,16,17,00,31.00
2010,08,16,17,01,31.00
2010,08,16,17,02,31.10
2010,08,16,17,03,31.10
2010,08,16,17,04,31.10
2010,08,16,17,05,31.10
2010,08,16,17,06,31.10
2010,08,16,17,07,31.10
2010,08,16,17,08,31.10
2010,08,16,17,09,31.10
2010,08,16,17,10,31.10
2010,08,16,17,11,31.00
2010,08,16,17,12,31.00
2010,08,16,17,13,31.00
2010,08,16,17,14,30.90
2010,08,16,17,15,30.90
2010,08,16,17,16,30.90
2010,08,16,17,17,30.90
2010,08,16,17,18,30.90
2010,08,16,17,19,30.90